SHT4L EGLL-EGCC

Flight info

Callsign SHT4L
Flight time 0h 29m
Altitude 18000
Route ULTIB1J ULTIB T420 ELVOS ELVOS1M
Aircraft A320/M-SDE3FGHIRWY/LB1

Departure

Time 2026-05-04 12:30
Airport London Heathrow Airport (EGLL)

Arrival

Time 2026-05-04 12:59
Airport Manchester Airport (EGCC)
Time Latitude Longitude Altitude Speed Heading
2026-05-04 11:36 51.47417 -0.48953 90 ft 0 kts 180°
2026-05-04 12:20 51.47421 -0.48953 86 ft 3 kts 180°
2026-05-04 12:20 51.47444 -0.48953 88 ft 2 kts 179°
2026-05-04 12:20 51.47459 -0.48946 88 ft 4 kts 237°
2026-05-04 12:21 51.47473 -0.48921 87 ft 4 kts 216°
2026-05-04 12:21 51.47489 -0.48907 89 ft 4 kts 146°
2026-05-04 12:21 51.47506 -0.48931 89 ft 2 kts 135°
2026-05-04 12:21 51.47507 -0.48933 91 ft 0 kts 135°
2026-05-04 12:22 51.47499 -0.48914 88 ft 7 kts 123°
2026-05-04 12:22 51.47486 -0.48781 89 ft 16 kts 89°
2026-05-04 12:23 51.47487 -0.48620 89 ft 15 kts 89°
2026-05-04 12:23 51.47448 -0.48476 87 ft 16 kts 164°
2026-05-04 12:23 51.47327 -0.48474 86 ft 19 kts 180°
2026-05-04 12:23 51.47187 -0.48473 86 ft 21 kts 179°
2026-05-04 12:24 51.47031 -0.48470 88 ft 23 kts 180°
2026-05-04 12:24 51.46865 -0.48470 87 ft 25 kts 179°
2026-05-04 12:24 51.46701 -0.48467 86 ft 22 kts 178°
2026-05-04 12:24 51.46653 -0.48301 86 ft 16 kts 89°
2026-05-04 12:25 51.46653 -0.48107 86 ft 18 kts 89°
2026-05-04 12:25 51.46655 -0.47887 86 ft 21 kts 90°
2026-05-04 12:25 51.46655 -0.47645 86 ft 23 kts 90°
2026-05-04 12:25 51.46656 -0.47376 86 ft 25 kts 89°
2026-05-04 12:26 51.46657 -0.47087 88 ft 27 kts 89°
2026-05-04 12:26 51.46658 -0.46781 86 ft 28 kts 89°
2026-05-04 12:26 51.46660 -0.46456 87 ft 30 kts 89°
2026-05-04 12:26 51.46660 -0.46117 86 ft 31 kts 90°
2026-05-04 12:27 51.46664 -0.45761 86 ft 33 kts 89°
2026-05-04 12:27 51.46662 -0.45389 86 ft 34 kts 90°
2026-05-04 12:27 51.46664 -0.45005 86 ft 35 kts 89°
2026-05-04 12:27 51.46665 -0.44610 86 ft 36 kts 89°
2026-05-04 12:28 51.46666 -0.44207 86 ft 37 kts 89°
2026-05-04 12:28 51.46667 -0.43858 86 ft 23 kts 90°
2026-05-04 12:28 51.46645 -0.43615 86 ft 18 kts 147°
2026-05-04 12:28 51.46548 -0.43609 87 ft 14 kts 178°
2026-05-04 12:29 51.46494 -0.43706 86 ft 12 kts 266°
2026-05-04 12:29 51.46494 -0.43957 86 ft 51 kts 270°
2026-05-04 12:29 51.46491 -0.44909 89 ft 116 kts 269°
2026-05-04 12:29 51.46489 -0.46491 92 ft 165 kts 270°
2026-05-04 12:30 51.46480 -0.48393 429 ft 180 kts 272°
2026-05-04 12:30 51.46506 -0.50507 870 ft 198 kts 275°
2026-05-04 12:30 51.46915 -0.52703 1305 ft 218 kts 296°
2026-05-04 12:30 51.47650 -0.54981 1813 ft 243 kts 300°
2026-05-04 12:31 51.48490 -0.57440 2636 ft 257 kts 299°
2026-05-04 12:31 51.49354 -0.59988 3604 ft 263 kts 298°
2026-05-04 12:31 51.50220 -0.62593 4561 ft 266 kts 297°
2026-05-04 12:31 51.51087 -0.65238 5497 ft 269 kts 297°
2026-05-04 12:32 51.52254 -0.67602 6397 ft 277 kts 323°
2026-05-04 12:32 51.56025 -0.68742 8109 ft 286 kts 359°
2026-05-04 12:32 51.58030 -0.68762 8963 ft 290 kts 358°
2026-05-04 12:33 51.60061 -0.68836 9805 ft 294 kts 356°
2026-05-04 12:33 51.62143 -0.68990 10333 ft 309 kts 355°
2026-05-04 12:33 51.64371 -0.69199 10551 ft 332 kts 355°
2026-05-04 12:33 51.66734 -0.69432 10975 ft 346 kts 355°
2026-05-04 12:34 51.69170 -0.69669 11645 ft 351 kts 355°
2026-05-04 12:34 51.71608 -0.69892 12339 ft 355 kts 355°
2026-05-04 12:34 51.74087 -0.70108 13050 ft 359 kts 355°
2026-05-04 12:34 51.76600 -0.70319 13758 ft 363 kts 355°
2026-05-04 12:35 51.79132 -0.70526 14393 ft 367 kts 356°
2026-05-04 12:35 51.81695 -0.70735 15017 ft 371 kts 356°
2026-05-04 12:35 51.84284 -0.70952 15622 ft 374 kts 356°
2026-05-04 12:35 51.86896 -0.71177 16226 ft 378 kts 356°
2026-05-04 12:36 51.89533 -0.71407 16829 ft 381 kts 356°
2026-05-04 12:36 51.92157 -0.71637 17437 ft 385 kts 356°
2026-05-04 12:36 51.94843 -0.71878 17914 ft 388 kts 356°
2026-05-04 12:36 51.97550 -0.72119 18031 ft 395 kts 356°
2026-05-04 12:37 52.00339 -0.72361 18048 ft 405 kts 356°
2026-05-04 12:37 52.03165 -0.72602 18057 ft 408 kts 356°
2026-05-04 12:37 52.05997 -0.72845 18057 ft 408 kts 356°
2026-05-04 12:37 52.08826 -0.73092 18057 ft 407 kts 355°
2026-05-04 12:38 52.11624 -0.73758 18056 ft 406 kts 345°
2026-05-04 12:38 52.14294 -0.75203 18057 ft 404 kts 335°
2026-05-04 12:38 52.16772 -0.77356 18055 ft 403 kts 327°
2026-05-04 12:38 52.19170 -0.79735 18060 ft 403 kts 327°
2026-05-04 12:39 52.21565 -0.82112 18054 ft 403 kts 327°
2026-05-04 12:39 52.23966 -0.84493 18060 ft 403 kts 327°
2026-05-04 12:39 52.26369 -0.86874 18061 ft 404 kts 327°
2026-05-04 12:39 52.28765 -0.89249 18072 ft 404 kts 327°
2026-05-04 12:40 52.31167 -0.91629 18072 ft 404 kts 327°
2026-05-04 12:40 52.32762 -0.93211 18079 ft 403 kts 327°
2026-05-04 12:40 52.35158 -0.95588 18084 ft 403 kts 327°
2026-05-04 12:40 52.38334 -0.98752 18086 ft 403 kts 327°
2026-05-04 12:41 52.40724 -1.01148 18096 ft 403 kts 327°
2026-05-04 12:41 52.43111 -1.03545 18078 ft 403 kts 327°
2026-05-04 12:41 52.45499 -1.05943 18077 ft 402 kts 327°
2026-05-04 12:41 52.47109 -1.07560 18077 ft 402 kts 327°
2026-05-04 12:42 52.49499 -1.09960 18067 ft 402 kts 327°
2026-05-04 12:42 52.51886 -1.12360 18062 ft 402 kts 327°
2026-05-04 12:42 52.54273 -1.14763 18064 ft 402 kts 327°
2026-05-04 12:42 52.56660 -1.17171 18063 ft 402 kts 327°
2026-05-04 12:43 52.59043 -1.19574 18057 ft 402 kts 327°
2026-05-04 12:43 52.61423 -1.21975 18058 ft 401 kts 327°
2026-05-04 12:43 52.63795 -1.24370 18050 ft 401 kts 327°
2026-05-04 12:43 52.66152 -1.26751 18048 ft 401 kts 327°
2026-05-04 12:44 52.68534 -1.29162 18053 ft 401 kts 327°
2026-05-04 12:44 52.70912 -1.31573 18054 ft 401 kts 327°
2026-05-04 12:44 52.73289 -1.33992 18055 ft 401 kts 327°
2026-05-04 12:44 52.75657 -1.36407 18002 ft 396 kts 327°
2026-05-04 12:45 52.77971 -1.38766 17732 ft 385 kts 327°
2026-05-04 12:45 52.80213 -1.41056 17462 ft 373 kts 327°
2026-05-04 12:45 52.82393 -1.43289 17192 ft 364 kts 327°
2026-05-04 12:45 52.84537 -1.45491 16936 ft 361 kts 327°
2026-05-04 12:46 52.86664 -1.47676 16676 ft 360 kts 327°
2026-05-04 12:46 52.88781 -1.49856 16395 ft 356 kts 326°
2026-05-04 12:46 52.90869 -1.52007 15924 ft 352 kts 327°
2026-05-04 12:46 52.92948 -1.54151 15419 ft 350 kts 327°
2026-05-04 12:47 52.94988 -1.56252 14937 ft 349 kts 327°
2026-05-04 12:47 52.97046 -1.58365 14441 ft 347 kts 327°
2026-05-04 12:47 52.99100 -1.60475 13957 ft 346 kts 327°
2026-05-04 12:47 53.01143 -1.62579 13429 ft 344 kts 327°
2026-05-04 12:48 53.03172 -1.64674 12934 ft 341 kts 327°
2026-05-04 12:48 53.05122 -1.66874 12452 ft 338 kts 319°
2026-05-04 12:48 53.06738 -1.69603 12270 ft 325 kts 309°
2026-05-04 12:48 53.08176 -1.72412 12146 ft 313 kts 309°
2026-05-04 12:49 53.09571 -1.75108 12004 ft 302 kts 309°
2026-05-04 12:49 53.10933 -1.77732 11752 ft 297 kts 309°
2026-05-04 12:49 53.12276 -1.80326 11393 ft 296 kts 309°
2026-05-04 12:49 53.13623 -1.82937 11050 ft 295 kts 309°
2026-05-04 12:50 53.14963 -1.85537 10595 ft 297 kts 309°
2026-05-04 12:50 53.16292 -1.88118 10269 ft 290 kts 309°
2026-05-04 12:50 53.17576 -1.90621 9638 ft 288 kts 309°
2026-05-04 12:50 53.18870 -1.93146 9002 ft 284 kts 309°
2026-05-04 12:51 53.20142 -1.95628 8447 ft 279 kts 309°
2026-05-04 12:51 53.21386 -1.98060 8107 ft 268 kts 309°
2026-05-04 12:51 53.22544 -2.00375 7959 ft 250 kts 304°
2026-05-04 12:51 53.23373 -2.02944 8066 ft 253 kts 288°
2026-05-04 12:52 53.23753 -2.05842 7779 ft 262 kts 273°
2026-05-04 12:52 53.23668 -2.08854 7545 ft 258 kts 266°
2026-05-04 12:52 53.23547 -2.11838 7248 ft 257 kts 267°
2026-05-04 12:52 53.23434 -2.14814 6942 ft 257 kts 266°
2026-05-04 12:53 53.23324 -2.17782 6645 ft 256 kts 267°
2026-05-04 12:53 53.23217 -2.20747 6351 ft 255 kts 266°
2026-05-04 12:53 53.23111 -2.23686 6054 ft 252 kts 266°
2026-05-04 12:53 53.23005 -2.26593 5521 ft 250 kts 266°
2026-05-04 12:54 53.22898 -2.29483 4978 ft 249 kts 267°
2026-05-04 12:54 53.22787 -2.32356 4459 ft 246 kts 266°
2026-05-04 12:54 53.22679 -2.35185 4000 ft 242 kts 266°
2026-05-04 12:54 53.22576 -2.37888 3867 ft 223 kts 266°
2026-05-04 12:55 53.22481 -2.40365 3757 ft 205 kts 266°
2026-05-04 12:55 53.22455 -2.42665 3650 ft 199 kts 281°
2026-05-04 12:55 53.23042 -2.44690 3576 ft 194 kts 315°
2026-05-04 12:55 53.24120 -2.45780 3490 ft 175 kts 346°
2026-05-04 12:56 53.25309 -2.45811 3085 ft 173 kts 16°
2026-05-04 12:56 53.26330 -2.44949 3009 ft 159 kts 38°
2026-05-04 12:56 53.27069 -2.43620 3013 ft 155 kts 50°
2026-05-04 12:56 53.27741 -2.42276 3023 ft 147 kts 50°
2026-05-04 12:57 53.28383 -2.40974 3012 ft 144 kts 51°
2026-05-04 12:57 53.29014 -2.39682 3006 ft 143 kts 51°
2026-05-04 12:57 53.29621 -2.38339 2715 ft 144 kts 52°
2026-05-04 12:57 53.30225 -2.36999 2239 ft 146 kts 50°
2026-05-04 12:58 53.30935 -2.35700 1610 ft 156 kts 48°
2026-05-04 12:58 53.31637 -2.34278 1012 ft 159 kts 51°
2026-05-04 12:58 53.32325 -2.32865 559 ft 153 kts 50°
2026-05-04 12:58 53.32967 -2.31535 313 ft 142 kts 50°
2026-05-04 12:59 53.33567 -2.30296 198 ft 125 kts 50°
2026-05-04 12:59 53.33895 -2.29631 209 ft 44 kts 51°
2026-05-04 12:59 53.34148 -2.29110 217 ft 65 kts 51°
2026-05-04 12:59 53.34383 -2.28654 219 ft 37 kts 41°
2026-05-04 13:00 53.34582 -2.28487 226 ft 29 kts 21°
2026-05-04 13:00 53.34747 -2.28330 233 ft 27 kts 49°
2026-05-04 13:00 53.34860 -2.28096 239 ft 27 kts 51°
2026-05-04 13:00 53.34980 -2.27851 238 ft 28 kts 50°
2026-05-04 13:01 53.35099 -2.27601 245 ft 27 kts 51°
2026-05-04 13:01 53.35217 -2.27354 250 ft 27 kts 51°
2026-05-04 13:01 53.35303 -2.27202 254 ft 10 kts 28°
2026-05-04 13:01 53.35391 -2.27214 259 ft 19 kts 330°
2026-05-04 13:02 53.35496 -2.27356 262 ft 17 kts 320°
2026-05-04 13:02 53.35546 -2.27424 259 ft 0 kts 321°
2026-05-04 13:03 53.35561 -2.27442 257 ft 10 kts 321°
2026-05-04 13:03 53.35657 -2.27572 247 ft 20 kts 320°
2026-05-04 13:03 53.35696 -2.27617 247 ft 0 kts 331°
2026-05-04 13:04 53.35696 -2.27618 247 ft 0 kts 331°
2026-05-04 13:04 53.35724 -2.27636 247 ft 9 kts 338°
2026-05-04 13:04 53.35787 -2.27688 247 ft 12 kts 320°
2026-05-04 13:05 53.35848 -2.27800 247 ft 15 kts 311°
2026-05-04 13:05 53.35944 -2.27843 247 ft 12 kts
2026-05-04 13:05 53.36024 -2.27887 247 ft 13 kts
2026-05-04 13:05 53.36112 -2.27903 247 ft 11 kts 316°
2026-05-04 13:06 53.36167 -2.27997 247 ft 13 kts 314°
2026-05-04 13:06 53.36238 -2.28117 247 ft 16 kts 315°
2026-05-04 13:06 53.36322 -2.28258 247 ft 19 kts 315°
2026-05-04 13:06 53.36405 -2.28429 247 ft 19 kts 297°
2026-05-04 13:07 53.36483 -2.28595 247 ft 15 kts 314°
2026-05-04 13:07 53.36560 -2.28726 247 ft 14 kts 313°
2026-05-04 13:07 53.36617 -2.28868 247 ft 15 kts 316°
2026-05-04 13:07 53.36705 -2.28972 247 ft 17 kts 314°
2026-05-04 13:08 53.36797 -2.29025 247 ft 16 kts 18°
2026-05-04 13:08 53.36889 -2.28903 247 ft 18 kts 43°
2026-05-04 13:08 53.36964 -2.28779 247 ft 10 kts 44°
2026-05-04 13:08 53.36968 -2.28743 247 ft 2 kts 107°
2026-05-04 13:09 53.36959 -2.28717 247 ft 2 kts 128°
2026-05-04 13:09 53.36949 -2.28698 247 ft 1 kts 133°
2026-05-04 13:09 53.36948 -2.28696 247 ft 0 kts 133°